CW4167 Weather Reports


Display with metric or nautical units.
time (UTC)temp
F
wind
direction
speed
MPH
gust
MPH
rain 1hr
in
rain 24hr
in
rain mn
in
humidity
%
barometer
mb
20260903123209 63 180 7.0 14.0 0.00 0.27 0.14 93 1005.0
20260903122710 63 192 11.0 16.0 0.00 0.27 0.14 93 1005.2
20260903120708 62 188 9.0 16.0 0.02 0.27 0.14 93 1005.2
20260903115709 62 199 8.0 15.0 0.02 0.27 0.14 93 1005.3
20260903115211 62 188 9.0 15.0 0.02 0.27 0.14 93 1005.4
20260903114210 62 170 8.0 14.0 0.02 0.27 0.14 93 1005.6
20260903113709 62 186 10.0 15.0 0.02 0.27 0.14 93 1005.6
20260903113211 62 186 9.0 21.0 0.02 0.27 0.14 93 1005.6
20260903112708 62 192 9.0 16.0 0.02 0.27 0.14 93 1005.6
20260903111210 62 196 8.0 16.0 0.02 0.27 0.14 93 1005.8
20260903110709 62 180 7.0 16.0 0.00 0.24 0.12 93 1005.8
20260903105710 62 176 10.0 18.0 0.01 0.24 0.12 93 1006.1
20260903105209 62 177 9.0 14.0 0.01 0.24 0.12 93 1006.1
20260903104710 62 189 7.0 16.0 0.01 0.24 0.12 93 1006.2
20260903104209 62 176 10.0 16.0 0.01 0.24 0.12 93 1006.3
20260903103210 61 164 8.0 14.0 0.01 0.24 0.12 93 1006.4
20260903102708 61 181 9.0 21.0 0.01 0.24 0.12 93 1006.4
20260903101211 61 190 10.0 16.0 0.02 0.24 0.12 93 1006.6
20260903100209 61 180 10.0 16.0 0.02 0.24 0.12 93 1006.8
20260903095209 61 163 10.0 16.0 0.01 0.23 0.11 93 1007.0
20260903094209 61 162 8.0 15.0 0.01 0.23 0.11 93 1007.3
20260903092209 61 171 10.0 16.0 0.02 0.23 0.11 93 1007.5
20260903091708 60 171 9.0 15.0 0.01 0.22 0.10 93 1007.5
20260903091210 60 163 6.0 14.0 0.01 0.22 0.10 93 1007.7
20260903084209 60 169 10.0 17.0 0.01 0.22 0.10 93 1008.0
20260903083708 60 160 7.0 13.0 0.02 0.22 0.10 93 1008.0
20260903082209 61 167 11.0 15.0 0.02 0.21 0.09 93 1008.2
20260903081709 61 172 10.0 16.0 0.02 0.21 0.09 93 1008.2
20260903081210 61 181 6.0 15.0 0.02 0.21 0.09 93 1008.3
20260903080210 60 162 4.0 10.0 0.03 0.21 0.09 93 1008.4
20260903073209 61 165 5.0 6.0 0.01 0.19 0.06 93 1008.7
20260903072208 61 171 4.0 6.0 0.01 0.19 0.06 93 1008.7
20260903071208 61 197 3.0 5.0 0.01 0.19 0.06 93 1008.8
20260903070711 61 210 2.0 5.0 0.00 0.18 0.05 93 1008.8
20260903065708 61 208 4.0 5.0 0.00 0.18 0.05 93 1008.9
20260903064708 61 174 6.0 10.0 0.00 0.18 0.05 93 1009.1
20260903064211 61 144 6.0 8.0 0.00 0.18 0.05 93 1009.1
20260903062710 61 159 5.0 8.0 0.01 0.18 0.05 93 1009.3
20260903062208 61 204 6.0 10.0 0.01 0.18 0.05 93 1009.4
20260903061710 61 189 5.0 8.0 0.01 0.18 0.05 93 1009.4
20260903061209 61 183 5.0 7.0 0.01 0.18 0.05 93 1009.4
20260903060708 61 171 3.0 7.0 0.01 0.18 0.05 93 1009.4
20260903055710 60 151 4.0 14.0 0.01 0.18 0.05 93 1009.5
20260903054208 60 192 4.0 7.0 0.01 0.18 0.05 93 1009.6
20260903053208 60 178 5.0 13.0 0.00 0.17 0.04 93 1009.7
20260903052709 60 182 7.0 10.0 0.00 0.17 0.04 93 1009.7
20260903052208 60 183 6.0 8.0 0.00 0.17 0.04 93 1009.8
20260903051208 59 165 7.0 14.0 0.01 0.17 0.04 93 1009.9
20260903050209 59 179 5.0 7.0 0.01 0.17 0.04 93 1010.0
20260903045708 59 191 5.0 8.0 0.01 0.17 0.04 93 1010.0
20260903044210 59 185 5.0 8.0 0.01 0.17 0.04 93 1010.2
20260903043707 59 169 5.0 7.0 0.01 0.17 0.04 93 1010.2
20260903043208 59 188 4.0 7.0 0.01 0.17 0.04 93 1010.3
20260903042208 59 197 4.0 8.0 0.01 0.17 0.04 93 1010.4
20260903040708 59 184 6.0 7.0 0.00 0.16 0.03 93 1010.5
20260903034208 59 230 3.0 7.0 0.00 0.16 0.03 92 1010.6
20260903033208 59 166 2.0 6.0 0.00 0.16 0.03 92 1010.7
20260903030709 59 189 3.0 8.0 0.00 0.16 0.03 92 1010.9
20260903025208 59 169 5.0 8.0 0.00 0.16 0.03 92 1010.9
20260903024708 59 180 5.0 7.0 0.00 0.16 0.03 92 1011.0
20260903024210 59 188 2.0 6.0 0.00 0.16 0.03 92 1011.0
20260903021708 59 196 5.0 8.0 0.01 0.17 0.03 92 1011.5
20260903020709 59 186 3.0 6.0 0.02 0.17 0.03 92 1011.5
20260903015209 59 188 5.0 6.0 0.03 0.17 0.03 92 1011.5
20260903013709 59 212 3.0 5.0 0.03 0.17 0.03 92 1011.7
20260903012209 59 196 4.0 7.0 0.03 0.17 0.03 92 1011.7
20260903010708 59 227 5.0 8.0 0.01 0.15 0.01 92 1011.9
20260903005207 58 189 5.0 7.0 0.00 0.14 0.00 92 1011.9
20260903004709 58 203 5.0 8.0 0.00 0.14 0.00 92 1011.9
20260903004208 58 202 4.0 7.0 0.00 0.14 0.00 92 1011.9
20260903003709 58 188 2.0 7.0 0.00 0.14 0.00 92 1011.9
20260903003209 58 184 3.0 6.0 0.00 0.14 0.00 92 1012.0
20260903000708 58 209 4.0 7.0 0.00 0.14 0.00 92 1012.1
20260903000207 58 200 2.0 5.0 0.00 0.14 0.00 92 1012.1
20260902235208 58 206 3.0 5.0 0.00 0.14 0.00 92 1012.2
20260902234707 58 200 2.0 6.0 0.00 0.14 0.00 92 1012.2
20260902234208 58 235 2.0 5.0 0.00 0.14 0.00 92 1012.3
20260902233208 58 227 3.0 7.0 0.00 0.14 0.00 92 1012.3
20260902232207 58 234 2.0 6.0 0.00 0.14 0.00 92 1012.4
20260902231707 58 247 4.0 8.0 0.00 0.14 0.00 92 1012.4
20260902231207 58 257 5.0 6.0 0.00 0.14 0.00 92 1012.4
20260902230208 58 226 5.0 8.0 0.00 0.14 0.00 92 1012.4
20260902225708 58 240 4.0 7.0 0.00 0.14 0.00 92 1012.4
20260902225209 58 256 3.0 6.0 0.00 0.14 0.00 92 1012.4
20260902224709 58 196 5.0 7.0 0.00 0.14 0.00 92 1012.4
20260902224209 58 242 3.0 6.0 0.00 0.14 0.00 92 1012.4
20260902223209 58 219 4.0 6.0 0.01 0.14 0.00 92 1012.5
20260902222207 58 217 3.0 7.0 0.01 0.14 0.00 92 1012.5
20260902220209 58 207 3.0 8.0 0.01 0.14 0.00 92 1012.4
20260902215708 58 225 6.0 15.0 0.01 0.14 0.14 92 1012.4
20260902215208 58 233 5.0 7.0 0.01 0.14 0.14 92 1012.4
20260902214708 58 188 4.0 8.0 0.01 0.14 0.14 92 1012.3
20260902214209 58 228 5.0 8.0 0.01 0.14 0.14 92 1012.3
20260902213207 58 207 5.0 7.0 0.01 0.14 0.14 92 1012.3
20260902212208 58 232 5.0 13.0 0.00 0.13 0.13 92 1012.3
20260902211707 58 206 6.0 14.0 0.00 0.13 0.13 92 1012.3
20260902211207 58 222 3.0 8.0 0.00 0.13 0.13 92 1012.3
20260902203208 58 200 5.0 10.0 0.00 0.13 0.13 91 1012.5
20260902202708 58 223 5.0 14.0 0.00 0.13 0.13 91 1012.5
20260902202210 58 180 4.0 8.0 0.00 0.13 0.13 91 1012.4
20260902201707 58 212 3.0 7.0 0.00 0.13 0.13 91 1012.4
20260902200708 58 189 7.0 10.0 0.00 0.13 0.13 91 1012.4
20260902194710 58 211 5.0 8.0 0.00 0.13 0.13 91 1012.5
20260902194207 58 184 5.0 13.0 0.00 0.13 0.13 91 1012.5
20260902192707 58 193 6.0 8.0 0.00 0.13 0.13 91 1012.5
20260902192207 58 206 4.0 7.0 0.00 0.13 0.13 91 1012.5
20260902191208 58 222 5.0 10.0 0.00 0.16 0.13 91 1012.6
20260902185709 58 229 4.0 8.0 0.00 0.16 0.13 91 1012.6
20260902184707 58 202 6.0 7.0 0.00 0.16 0.13 90 1012.5
20260902183707 58 199 5.0 8.0 0.00 0.16 0.13 90 1012.4
20260902182207 59 205 5.0 13.0 0.00 0.16 0.13 90 1012.2
20260902181207 60 230 3.0 7.0 0.00 0.16 0.13 90 1012.2
20260902180707 60 219 6.0 10.0 0.00 0.16 0.13 91 1012.2
20260902175708 60 223 5.0 13.0 0.00 0.16 0.13 91 1012.2
20260902175207 60 179 5.0 15.0 0.00 0.16 0.13 91 1012.2
20260902174207 60 209 6.0 15.0 0.00 0.16 0.13 91 1012.1
20260902172707 60 200 6.0 10.0 0.00 0.16 0.13 90 1012.1
20260902171707 61 203 9.0 15.0 0.01 0.16 0.13 90 1012.1
20260902170207 61 220 7.0 15.0 0.02 0.16 0.13 90 1012.2
20260902165207 61 208 8.0 15.0 0.03 0.16 0.13 90 1012.3
20260902163707 60 195 8.0 15.0 0.03 0.16 0.13 90 1012.4
20260902163209 60 203 6.0 10.0 0.03 0.16 0.13 90 1012.4
20260902162707 60 217 5.0 10.0 0.03 0.16 0.13 90 1012.4
20260902161708 60 230 6.0 8.0 0.02 0.15 0.12 89 1012.4
20260902161207 60 201 6.0 10.0 0.02 0.15 0.12 89 1012.5
20260902160707 60 194 7.0 15.0 0.01 0.14 0.11 89 1012.5
20260902160209 60 210 5.0 8.0 0.02 0.14 0.11 89 1012.6
20260902155709 60 241 5.0 9.0 0.01 0.13 0.10 89 1012.6
20260902154709 60 230 3.0 7.0 0.01 0.13 0.10 89 1012.6
20260902153207 61 178 7.0 8.0 0.02 0.13 0.10 90 1012.6
20260902152207 60 199 6.0 10.0 0.03 0.13 0.10 89 1012.6
20260902150709 60 202 6.0 15.0 0.06 0.13 0.10 89 1012.7
20260902145208 59 196 7.0 15.0 0.07 0.12 0.09 88 1012.8
20260902144708 59 212 6.0 8.0 0.07 0.12 0.09 88 1012.8
20260902144207 59 193 5.0 13.0 0.07 0.12 0.09 87 1012.7
20260902142709 60 210 9.0 14.0 0.06 0.11 0.07 85 1012.8
20260902142218 61 211 8.0 13.0 0.05 0.10 0.06 84 1012.5
20260902141715 61 249 2.0 7.0 0.04 0.09 0.05 83 1012.5
20260902141211 62 228 5.0 14.0 0.03 0.07 0.04 82 1012.5
20260902140710 63 234 9.0 16.0 0.02 0.06 0.03 80 1012.5
20260902135208 66 242 11.0 21.0 0.00 0.04 0.01 78 1012.5
20260902133208 67 221 10.0 20.0 0.00 0.04 0.01 75 1012.5
20260902132708 67 235 9.0 17.0 0.00 0.04 0.01 74 1012.5
20260902131711 68 223 9.0 25.0 0.00 0.04 0.01 73 1012.5
20260902131208 68 195 10.0 20.0 0.00 0.04 0.01 73 1012.5
20260902130709 68 229 11.0 21.0 0.00 0.04 0.01 72 1012.5
20260902125210 67 241 12.0 20.0 0.00 0.04 0.01 73 1012.5
20260902124208 67 224 10.0 21.0 0.00 0.04 0.01 74 1012.5